[[{"header":{"parameterUnit":"m.s-1","parameterCategory":1,"la1":30.2991,"la2":30.254,"lo1":-89.0895,"lo2":-89.0444,"dy":0.0017,"dx":0.0017,"nx":28,"ny":28,"refTime":"2024-12-23T09:00:00:Z","depth":0,"parameterNumber":2,"parameterNumberName":"U-component_of_WINDS"},"data":[0,0,0,0,0,0,0,0,0,0,0,0,0,0,0,0,0,0,0,0,0,0,0,0,0,0,0,0,0,0,0,0,0,0,0,0,0,0,0,0,0,0,0,0,0,0,0,0,0,0,0,0,0,0,0,0,0,0,-3.7229,-3.7228,0,-3.7161,-3.7161,-3.716,-3.6947,-3.6942,-3.6937,-3.6933,-3.6869,-3.6872,-3.6875,0,0,0,0,0,0,0,0,0,0,0,0,0,-3.718,-3.7182,-3.7229,-3.7228,-3.7228,-3.7161,-3.716,-3.716,-3.6947,-3.6942,-3.6936,-3.6931,-3.6869,-3.6872,-3.6875,0,0,0,0,0,0,0,0,0,0,0,0,0,-3.7166,-3.7183,-3.7229,-3.7114,-3.7102,-3.7162,-3.716,-3.7159,-3.6949,-3.6942,-3.6934,-3.6928,-3.6867,-3.6871,-3.6875,-3.7043,0,0,-3.6888,-3.689,0,0,0,0,0,0,0,0,-3.7167,-3.7168,-3.7131,-3.7122,-3.7109,-3.7055,-3.712,-3.7121,-3.695,-3.7007,-3.6933,-3.6924,-3.6937,-3.6935,-3.6938,-3.704,-3.7037,-3.6888,-3.6891,-3.6893,-3.6894,0,0,0,0,0,0,0,-3.7169,-3.717,-3.7202,-3.7131,-3.7118,-3.7067,-3.7057,-3.7119,-3.7013,-3.7002,-3.6986,-3.6981,-3.693,-3.6935,-3.6935,-3.7036,-3.6888,-3.6892,-3.6894,-3.6896,-3.7272,-3.7279,0,0,0,0,0,0,-3.7185,-3.7172,-3.7205,-3.72,-3.7121,-3.7073,-3.7062,-3.708,-3.7012,-3.6995,-3.6987,-3.6971,-3.6931,-3.6931,-3.6932,-3.7124,-3.6893,-3.6896,-3.6899,-3.7265,-3.7274,-3.7282,0,0,0,0,0,0,-3.7185,-3.719,-3.7207,-3.7182,-3.718,-3.7082,-3.7103,-3.7082,-3.7087,-3.7,-3.6981,-3.7011,-3.6926,-3.6926,-3.7016,-3.7118,-3.6898,-3.6902,-3.7256,-3.7267,-3.7278,-3.7509,0,0,0,0,0,0,-3.7185,-3.7191,-3.7253,-3.7185,-3.7182,-3.7292,-3.7109,-3.7086,-3.7094,-3.7072,-3.7018,-3.7002,-3.692,-3.7012,-3.7021,-3.712,-3.6905,-3.7246,-3.7261,-3.7274,-3.7492,-3.7527,-3.7556,0,0,0,0,0,-3.7184,-3.7322,-3.7257,-3.7262,-3.7257,-3.7298,-3.7297,-3.7198,-3.7103,-3.7164,-3.7109,-3.7004,-3.7106,-3.7023,-3.7031,-3.7133,-3.7239,-3.7257,-3.7273,-3.7477,-3.752,-3.7556,0,0,0,0,0,0,-3.7407,-3.7311,-3.7238,-3.7358,-3.7338,-3.7262,-3.7337,-3.7246,-3.7254,-3.7234,-3.7113,-3.7102,-3.721,-3.718,-3.7089,-3.7292,-3.7155,-3.7175,-3.7307,-3.7347,-3.7379,-3.7384,-3.6909,0,0,0,0,0,-3.747,-3.751,-3.7424,-3.7539,-3.7532,-3.7437,-3.7451,-3.7376,-3.7351,-3.7342,-3.7293,-3.7275,-3.7302,-3.7323,-3.7343,-3.7486,-3.7472,-3.7561,-3.7593,-3.762,-3.7639,-3.7712,-3.7751,-3.7338,-3.7337,-3.7337,0,0,-3.7601,-3.7554,-3.7586,-3.7582,-3.7558,-3.7603,-3.7431,-3.7487,-3.7519,-3.7351,-3.7432,-3.7397,-3.7367,-3.7485,-3.7534,-3.7464,-3.775,-3.7642,-3.7664,-3.7668,-3.7734,-3.7773,-3.7808,-3.7349,-3.7347,-3.7345,0,0,-3.7863,-3.7831,-3.7922,-3.79,-3.7864,-3.78,-3.7823,-3.776,-3.7729,-3.7808,-3.7683,-3.7721,-3.7771,-3.7756,-3.7755,-3.801,-3.7915,-3.8021,-3.8191,-3.8264,-3.8296,-3.8325,-3.8417,-3.8451,-3.8039,-3.804,-3.804,0,-3.8031,-3.8092,-3.7981,-3.8044,-3.8047,-3.7894,-3.7986,-3.7972,-3.7946,-3.7952,-3.7872,-3.7931,-3.7901,-3.8013,-3.8075,-3.8079,-3.8102,-3.8027,-3.83,-3.8328,-3.8352,-3.8439,-3.8473,-3.8053,-3.8052,-3.805,-3.8049,0,-3.8301,-3.8346,-3.8424,-3.84,-3.8411,-3.849,-3.8392,-3.8417,-3.8341,-3.8286,-3.837,-3.8328,-3.8337,-3.8358,-3.8286,-3.846,-3.8417,-3.8322,-3.8182,-3.8407,-3.8486,-3.8518,-3.8072,-3.8067,-3.8063,-3.806,0,0,-3.8703,-3.8615,-3.8646,-3.8633,-3.8581,-3.8615,-3.8687,-3.8693,-3.8717,-3.8705,-3.8763,-3.8808,-3.8718,-3.8718,-3.8642,-3.8707,-3.8913,-3.8602,-3.8599,-3.8662,-3.9103,-3.9176,-3.9216,-3.8848,-3.8854,-3.8859,-3.9105,0,-3.8951,-3.9065,-3.8967,-3.9101,-3.9141,-3.8997,-3.9059,-3.9036,-3.8987,-3.9015,-3.8961,-3.8995,-3.8874,-3.8872,-3.893,-3.8876,-3.9,-3.8856,-3.8903,-3.8906,-3.8915,-3.9257,-3.9334,-3.9568,-3.9136,-3.9141,-3.9144,0,-3.9255,-3.9254,-3.9392,-3.9331,-3.9344,-3.9402,-3.94,-3.9428,-3.94,-3.9359,-3.9358,-3.9265,-3.9333,-3.9196,-3.9288,-3.9193,-3.9206,-3.9183,-3.9189,-3.919,-3.9039,-3.9268,-3.9641,-3.9677,-3.9192,-3.9188,-3.9185,0,-3.9535,-3.9568,-3.9654,-3.9647,-3.9579,-3.9622,-3.9596,-3.956,-3.957,-3.957,-3.9576,-3.9585,-3.959,-3.9599,-3.9512,-3.942,-3.9616,-3.9472,-3.9586,-3.9589,-3.9634,-3.9632,-4.0015,-3.9643,-3.9642,-3.9642,-3.9641,0,-3.9822,-3.9912,-3.9778,-3.9831,-3.9928,-3.9815,-3.9915,-3.9874,-3.9843,-3.9887,-3.9764,-3.9809,-3.969,-3.9723,-3.9655,-3.9743,-3.9746,-3.9716,-3.9697,-3.9727,-3.9732,-3.9735,-3.9716,-3.9651,-3.9649,-3.9647,-3.9645,0,-4.0151,-4.0064,-4.0148,-4.0076,-4.006,-4.0135,-4.0073,-4.0121,-4.0062,-4.012,-4.0127,-4.0037,-4.007,-3.9983,-4.0003,-3.9957,-4.0083,-4.0038,-4.0093,-4.0079,-4.0198,-4.0189,-4.0597,-4.0645,-4.0243,-4.0247,-4.025,0,-4.034,-4.0405,-4.0339,-4.0358,-4.0338,-4.0372,-4.0381,-4.0273,-4.0288,-4.026,-4.0312,-4.0333,-4.0344,-4.0403,-4.0341,-4.0356,-4.031,-4.0452,-4.0312,-4.034,-4.0313,-4.031,-4.0316,-4.0482,-4.0487,-4.0491,-4.0494,0,-4.0685,-4.0638,-4.0655,-4.0658,-4.0672,-4.0669,-4.0658,-4.0682,-4.0567,-4.0591,-4.062,-4.063,-4.0649,-4.0672,-4.0673,-4.0648,-4.0554,-4.0539,-4.0566,-4.0597,-4.0626,-4.0613,-4.0172,-4.053,-4.0526,-4.0524,-4.0522,-4.052,-4.0949,-4.1,-4.0961,-4.0984,-4.0964,-4.0957,-4.0997,-4.0944,-4.0966,-4.0971,-4.0907,-4.0951,-4.0921,-4.0912,-4.0897,-4.0931,-4.0867,-4.0906,-4.0916,-4.0928,-4.0948,-4.0621,-4.0931,-4.093,-4.0929,-4.0928,-4.0927,0,-4.1288,-4.1255,-4.1277,-4.1264,-4.1283,-4.1189,-4.1172,-4.1195,-4.1234,-4.1213,-4.1226,-4.1262,-4.1284,-4.1224,-4.1237,-4.1277,-4.1234,-4.1284,-4.128,-4.1276,-4.1005,-4.098,-4.1319,-4.1319,-4.1319,-4.1319,-4.1318,-4.1318,-4.1466,-4.1547,-4.1497,-4.1568,-4.1534,-4.1575,-4.1573,-4.1566,-4.1549,-4.1593,-4.161,-4.1569,-4.1533,-4.1543,-4.156,-4.1541,-4.1553,-4.1619,-4.1586,-4.1334,-4.1295,-4.1259,-4.1235,-4.1622,-4.1622,-4.1854,-4.1856,-4.1858]},{"header":{"parameterUnit":"m.s-1","parameterCategory":1,"la1":30.2991,"la2":30.254,"lo1":-89.0895,"lo2":-89.0444,"dy":0.0017,"dx":0.0017,"nx":28,"ny":28,"refTime":"2024-12-23T09:00:00:Z","depth":0,"parameterNumber":3,"parameterNumberName":"V-component_of_WINDS"},"data":[0,0,0,0,0,0,0,0,0,0,0,0,0,0,0,0,0,0,0,0,0,0,0,0,0,0,0,0,0,0,0,0,0,0,0,0,0,0,0,0,0,0,0,0,0,0,0,0,0,0,0,0,0,0,0,0,0,0,-1.9225,-1.9226,0,-1.9296,-1.9297,-1.9297,-1.9306,-1.9306,-1.9305,-1.9304,-1.9375,-1.9377,-1.938,0,0,0,0,0,0,0,0,0,0,0,0,0,-1.9094,-1.9097,-1.9225,-1.9226,-1.9227,-1.9296,-1.9297,-1.9298,-1.9307,-1.9306,-1.9305,-1.9304,-1.9374,-1.9377,-1.938,0,0,0,0,0,0,0,0,0,0,0,0,0,-1.9157,-1.9098,-1.9225,-1.924,-1.9242,-1.9295,-1.9297,-1.9298,-1.9307,-1.9306,-1.9305,-1.9304,-1.9373,-1.9377,-1.938,-1.9424,0,0,-1.9392,-1.9393,0,0,0,0,0,0,0,0,-1.9153,-1.9161,-1.9237,-1.9239,-1.9241,-1.9291,-1.9276,-1.934,-1.9307,-1.9282,-1.9304,-1.9303,-1.9348,-1.9353,-1.9369,-1.9427,-1.943,-1.9392,-1.9394,-1.9396,-1.9397,0,0,0,0,0,0,0,-1.9149,-1.9158,-1.9253,-1.9238,-1.924,-1.9242,-1.9249,-1.9288,-1.932,-1.9284,-1.9285,-1.9293,-1.9349,-1.9365,-1.9371,-1.9431,-1.9392,-1.9395,-1.9398,-1.9399,-1.9527,-1.9528,0,0,0,0,0,0,-1.9142,-1.9155,-1.9251,-1.9255,-1.9194,-1.9245,-1.9253,-1.9276,-1.9319,-1.9325,-1.9294,-1.9293,-1.9359,-1.9366,-1.9373,-1.9426,-1.9396,-1.9399,-1.9402,-1.9525,-1.9527,-1.9528,0,0,0,0,0,0,-1.9139,-1.9151,-1.9248,-1.9205,-1.9218,-1.9248,-1.9274,-1.9278,-1.9295,-1.9327,-1.9332,-1.9305,-1.9359,-1.9368,-1.9411,-1.9428,-1.9401,-1.9405,-1.9524,-1.9526,-1.9527,-1.9532,0,0,0,0,0,0,-1.9136,-1.915,-1.9167,-1.9206,-1.922,-1.9285,-1.9275,-1.928,-1.9301,-1.9301,-1.9339,-1.9344,-1.9359,-1.9405,-1.9415,-1.9433,-1.9408,-1.9523,-1.9525,-1.9527,-1.9531,-1.9534,-1.9537,0,0,0,0,0,-1.9131,-1.9166,-1.9168,-1.918,-1.9243,-1.9286,-1.9295,-1.9311,-1.9303,-1.932,-1.934,-1.9343,-1.9425,-1.941,-1.942,-1.944,-1.9522,-1.9524,-1.9527,-1.9529,-1.9533,-1.9537,0,0,0,0,0,0,-1.9128,-1.9171,-1.9174,-1.9223,-1.9251,-1.9288,-1.9311,-1.9315,-1.9346,-1.9344,-1.9363,-1.9371,-1.9413,-1.9431,-1.9413,-1.9483,-1.9472,-1.9477,-1.9471,-1.9475,-1.9478,-1.9472,-1.9411,0,0,0,0,0,-1.9134,-1.9166,-1.9201,-1.9241,-1.9255,-1.928,-1.93,-1.931,-1.934,-1.9352,-1.9375,-1.9403,-1.9435,-1.9456,-1.9487,-1.9533,-1.9541,-1.9552,-1.9555,-1.9557,-1.9561,-1.9585,-1.959,-1.9536,-1.9536,-1.9536,0,0,-1.9144,-1.9172,-1.9191,-1.9241,-1.9264,-1.9296,-1.929,-1.9325,-1.9349,-1.9357,-1.9399,-1.9417,-1.9449,-1.9493,-1.9514,-1.9509,-1.9577,-1.956,-1.9562,-1.9565,-1.9588,-1.9593,-1.9598,-1.9538,-1.9538,-1.9538,0,0,-1.9181,-1.9205,-1.924,-1.9263,-1.9298,-1.9315,-1.9323,-1.9359,-1.9371,-1.9414,-1.942,-1.9448,-1.9503,-1.9526,-1.9544,-1.9587,-1.959,-1.9597,-1.9613,-1.9636,-1.964,-1.9644,-1.9659,-1.9664,-1.9601,-1.9601,-1.9601,0,-1.919,-1.924,-1.9257,-1.9292,-1.9313,-1.9321,-1.9356,-1.9377,-1.942,-1.9434,-1.9428,-1.9497,-1.9519,-1.9568,-1.9579,-1.9594,-1.9603,-1.9593,-1.9638,-1.9642,-1.9646,-1.966,-1.9666,-1.9601,-1.9601,-1.9601,-1.9601,0,-1.9249,-1.9283,-1.9307,-1.9349,-1.9372,-1.9406,-1.9428,-1.9449,-1.9457,-1.9474,-1.9516,-1.9543,-1.9579,-1.9592,-1.96,-1.9642,-1.9637,-1.9635,-1.9624,-1.9652,-1.9665,-1.9671,-1.9602,-1.9602,-1.9601,-1.9601,0,0,-1.9287,-1.9337,-1.9345,-1.9363,-1.9402,-1.9428,-1.9462,-1.9498,-1.9516,-1.9545,-1.9573,-1.9618,-1.9616,-1.9637,-1.9647,-1.9668,-1.9699,-1.9662,-1.9663,-1.9668,-1.9745,-1.9747,-1.9753,-1.9701,-1.9702,-1.9703,-1.9742,0,-1.9327,-1.9389,-1.9405,-1.9457,-1.9488,-1.9496,-1.9525,-1.9551,-1.9567,-1.9595,-1.9612,-1.9644,-1.9639,-1.9651,-1.9672,-1.9691,-1.9715,-1.9688,-1.9726,-1.9728,-1.9718,-1.976,-1.9763,-1.9799,-1.9748,-1.9749,-1.975,0,-1.9383,-1.9413,-1.9469,-1.9502,-1.9515,-1.9542,-1.9575,-1.9602,-1.9631,-1.9641,-1.9664,-1.9672,-1.9706,-1.9693,-1.974,-1.9721,-1.9738,-1.9749,-1.9751,-1.9755,-1.974,-1.9765,-1.9811,-1.9816,-1.9758,-1.9757,-1.9757,0,-1.9405,-1.9459,-1.9499,-1.9514,-1.9554,-1.9572,-1.9589,-1.9618,-1.9638,-1.9666,-1.9679,-1.9711,-1.9729,-1.9753,-1.9769,-1.9758,-1.9814,-1.9803,-1.9822,-1.9822,-1.9834,-1.9833,-1.9883,-1.9845,-1.9845,-1.9845,-1.9845,0,-1.9448,-1.9482,-1.9509,-1.9533,-1.957,-1.9587,-1.9623,-1.964,-1.9665,-1.9692,-1.97,-1.9725,-1.9745,-1.9772,-1.9784,-1.9821,-1.9829,-1.9837,-1.984,-1.9836,-1.9835,-1.9847,-1.9845,-1.9846,-1.9846,-1.9845,-1.9845,0,-1.9479,-1.9499,-1.9542,-1.9576,-1.9585,-1.9611,-1.9639,-1.9663,-1.9678,-1.9712,-1.9721,-1.9745,-1.9778,-1.9796,-1.9836,-1.9845,-1.9885,-1.9887,-1.9875,-1.9876,-1.9895,-1.9893,-1.9954,-1.9963,-1.9919,-1.992,-1.992,0,-1.9505,-1.9531,-1.9567,-1.9586,-1.9604,-1.9634,-1.9655,-1.9672,-1.9692,-1.9726,-1.9745,-1.9778,-1.9806,-1.9857,-1.9877,-1.9908,-1.991,-1.9929,-1.9915,-1.991,-1.991,-1.9908,-1.991,-1.9932,-1.9932,-1.9933,-1.9933,0,-1.955,-1.9558,-1.9588,-1.962,-1.9645,-1.9671,-1.9697,-1.9711,-1.9732,-1.9755,-1.9788,-1.9809,-1.9851,-1.9883,-1.9915,-1.9931,-1.9935,-1.9937,-1.9943,-1.994,-1.9932,-1.9936,-1.9882,-1.9936,-1.9936,-1.9935,-1.9935,-1.9935,-1.958,-1.9602,-1.9631,-1.9663,-1.9684,-1.9708,-1.9731,-1.975,-1.9778,-1.9813,-1.9821,-1.9856,-1.9882,-1.9926,-1.9943,-1.997,-1.9966,-1.9975,-1.9978,-1.998,-1.998,-1.9928,-1.9976,-1.9976,-1.9976,-1.9976,-1.9976,0,-1.9625,-1.9643,-1.9672,-1.9708,-1.9733,-1.9735,-1.9763,-1.9784,-1.9814,-1.9839,-1.9866,-1.9903,-1.9934,-1.9956,-1.9987,-2.0004,-2.0007,-2.0012,-2.0011,-2.0014,-1.9982,-1.9973,-2.0009,-2.0009,-2.0009,-2.0009,-2.0009,-2.0009,-1.9651,-1.9689,-1.97,-1.9749,-1.9767,-1.9801,-1.9817,-1.9839,-1.9858,-1.99,-1.9926,-1.994,-1.9964,-1.9996,-2.0024,-2.003,-2.0041,-2.0046,-2.0051,-2.002,-2.0017,-2.0013,-2.0005,-2.0048,-2.0048,-2.0082,-2.0082,-2.0082]}]]